Home   Weather   Verden (Aller)   Past weeks

Flag for Germany Past Weather in Verden (Aller), Lower Saxony, Germany — Yesterday and Last 2 Weeks

Now
46 °F

Clear.


Feels Like: 40 °F
Forecast: 45 / 51 °F
Wind: 16 mph from East

Location: Bremen Airport

Current Time: May 1, 2017 at 4:18:37 am

Latest Report: May 1, 2017 at 3:20 am


Visibility: N/A

Pressure: 29.89 "Hg

Humidity: 62%

Dew Point: 34 °F

Location of Verden (Aller)Location

Past Weather in Verden (Aller) — Graph

°F

Verden (Aller) Temperature Yesterday

Maximum temperature yesterday: 59 °F (at 2:50 pm)
Minimum temperature yesterday: 36 °F (at 3:50 am)
Average temperature yesterday: 49 °F

High & Low Weather Summary for the Past Weeks

 TemperatureHumidityPressure
High59 °F (Apr 30, 2:50 pm)100% (Apr 17, 3:50 am)30.63 "Hg (Apr 17, 3:50 am)
Low27 °F (Apr 20, 6:20 am)31% (Apr 30, 5:20 pm)29.59 "Hg (Apr 25, 5:20 am)
Average43 °F72%30.10 "Hg
* Reported Apr 16 2:20 am — May 1 2:20 am, Verden (Aller), Weather by CustomWeather, © 2017

Note: Actual official high and low records may vary slightly from our data, if they occured in-between our weather recording intervals... More about our weather records

Advertising

Verden (Aller) Weather History for the Previous 24 Hours

Scroll right to see more
 ConditionsComfort  
Time TempWeatherWind HumidityBarometerVisibility
2:20 am
Mon, May 1
46 °FClear.17 mph62%29.89 "HgN/A
1:50 am48 °FClear.17 mph58%29.89 "HgN/A
1:20 am48 °FClear.18 mph58%29.89 "HgN/A
12:50 am50 °FClear.17 mph54%29.89 "HgN/A
12:20 am50 °FClear.18 mph54%29.89 "Hg10 mi
11:50 pm
Sun, Apr 30
52 °FClear.17 mph50%29.89 "Hg10 mi
11:20 pm52 °FClear.16 mph47%29.89 "Hg10 mi
10:50 pm52 °FClear.15 mph47%29.89 "Hg10 mi
10:20 pm52 °FClear.12 mph47%29.89 "Hg10 mi
9:50 pm54 °FCool.14 mph44%29.89 "HgN/A
9:20 pm54 °FClear.14 mph41%29.89 "Hg10 mi
8:50 pm55 °FClear.13 mph38%29.89 "Hg10 mi
8:20 pm57 °FPassing clouds.18 mph33%29.89 "HgN/A
7:50 pm57 °FPassing clouds.18 mph33%29.89 "HgN/A
7:20 pm59 °FPassing clouds.17 mph31%29.89 "HgN/A
6:50 pm59 °FSunny.20 mph34%29.89 "Hg10 mi
6:20 pm59 °FSunny.21 mph34%29.89 "Hg10 mi
5:50 pm59 °FSunny.18 mph34%29.89 "Hg10 mi
5:20 pm59 °FPassing clouds.22 mph31%29.92 "HgN/A
4:50 pm59 °FSunny.20 mph34%29.92 "Hg10 mi
4:20 pm59 °FPassing clouds.20 mph36%29.92 "HgN/A
3:50 pm59 °FPassing clouds.20 mph36%29.95 "HgN/A
3:20 pm59 °FSunny.21 mph36%29.95 "Hg10 mi
2:50 pm59 °FPassing clouds.17 mph39%29.98 "HgN/A
2:20 pm57 °FPassing clouds.20 mph39%29.98 "HgN/A
1:50 pm57 °FSunny.17 mph39%30.01 "Hg10 mi
1:20 pm55 °FPassing clouds.20 mph41%30.01 "HgN/A
12:50 pm55 °FPassing clouds.20 mph41%30.01 "HgN/A
12:20 pm55 °FPassing clouds.17 mph41%30.04 "HgN/A
11:50 am54 °FPassing clouds.18 mph47%30.04 "HgN/A
11:20 am54 °FPassing clouds.18 mph44%30.07 "HgN/A
10:50 am52 °FPassing clouds.18 mph47%30.07 "HgN/A
10:20 am50 °FSunny.16 mph54%30.07 "Hg10 mi
9:50 am50 °FSunny.15 mph58%30.07 "Hg10 mi
9:20 am48 °FSunny.13 mph58%30.09 "Hg10 mi
8:50 am46 °FPassing clouds.10 mph66%30.09 "HgN/A
8:20 am43 °FSunny.10 mph71%30.09 "Hg10 mi
7:50 am43 °FPassing clouds.9 mph71%30.09 "HgN/A
7:20 am41 °FSunny.9 mph76%30.09 "Hg10 mi
6:50 am37 °FSunny.6 mph81%30.09 "Hg10 mi
5:50 am36 °FClear.6 mph87%30.09 "Hg10 mi
5:20 am36 °FClear.6 mph87%30.09 "Hg10 mi
4:50 am36 °FClear.8 mph87%30.09 "Hg10 mi
4:20 am36 °FClear.7 mph87%30.09 "Hg10 mi
Weather by CustomWeather, © 2017

See weather overviewHow to use our weather pages